TimeCST,TemperatureF,Dew PointF,Humidity,Sea Level PressureIn,VisibilityMPH,Wind Direction,Wind SpeedMPH,Gust SpeedMPH,PrecipitationIn,Events,Conditions,WindDirDegrees,DateUTC
12:53 AM,-14.1,-20.0,75,30.30,10.0,West,10.4,-,N/A,,Clear,280,2014-01-07 06:53:00
1:53 AM,-13.0,-18.9,75,30.29,10.0,WNW,11.5,-,N/A,,Clear,290,2014-01-07 07:53:00
2:53 AM,-13.0,-18.9,75,30.30,10.0,West,12.7,-,N/A,,Clear,260,2014-01-07 08:53:00
3:53 AM,-14.1,-20.0,75,30.30,10.0,WSW,8.1,-,N/A,,Clear,250,2014-01-07 09:53:00
4:53 AM,-15.0,-20.0,78,30.30,10.0,WSW,9.2,-,N/A,,Clear,250,2014-01-07 10:53:00
5:53 AM,-15.0,-20.0,78,30.30,10.0,SW,5.8,-,N/A,,Clear,230,2014-01-07 11:53:00
6:53 AM,-13.0,-18.0,78,30.30,10.0,WSW,9.2,-,N/A,,Scattered Clouds,240,2014-01-07 12:53:00
7:53 AM,-11.0,-16.1,78,30.30,10.0,WSW,9.2,-,N/A,,Scattered Clouds,240,2014-01-07 13:53:00
8:53 AM,-8.0,-15.0,71,30.30,10.0,WSW,4.6,-,N/A,,Partly Cloudy,250,2014-01-07 14:53:00
9:53 AM,-7.1,-13.0,75,30.32,10.0,SW,10.4,-,N/A,,Overcast,230,2014-01-07 15:53:00
10:53 AM,-4.0,-11.0,72,30.32,10.0,SW,10.4,-,N/A,,Mostly Cloudy,230,2014-01-07 16:53:00
11:53 AM,-2.9,-9.9,72,30.29,10.0,SW,4.6,-,N/A,,Partly Cloudy,230,2014-01-07 17:53:00
12:53 PM,-0.9,-9.0,69,30.25,10.0,SSW,4.6,-,N/A,,Overcast,200,2014-01-07 18:53:00
1:53 PM,1.0,-8.0,66,30.24,10.0,South,4.6,-,N/A,,Overcast,180,2014-01-07 19:53:00
2:53 PM,1.9,-7.1,66,30.23,10.0,ESE,4.6,-,N/A,,Partly Cloudy,120,2014-01-07 20:53:00
3:53 PM,1.9,-6.0,69,30.25,10.0,South,4.6,-,N/A,,Clear,170,2014-01-07 21:53:00
4:53 PM,-0.9,-8.0,72,30.26,10.0,South,5.8,-,N/A,,Clear,170,2014-01-07 22:53:00
5:53 PM,-2.0,-9.0,72,30.29,10.0,SSE,4.6,-,N/A,,Clear,150,2014-01-07 23:53:00
6:53 PM,-2.9,-9.0,75,30.31,10.0,South,5.8,-,N/A,,Clear,190,2014-01-08 00:53:00
7:53 PM,-4.0,-9.0,79,30.31,10.0,Calm,Calm,-,N/A,,Clear,0,2014-01-08 01:53:00
8:53 PM,-5.1,-9.9,80,30.32,10.0,South,3.5,-,N/A,,Clear,190,2014-01-08 02:53:00
9:53 PM,-5.1,-9.9,80,30.33,10.0,Calm,Calm,-,N/A,,Clear,0,2014-01-08 03:53:00
10:53 PM,-7.1,-11.0,83,30.32,10.0,Calm,Calm,-,N/A,,Clear,0,2014-01-08 04:53:00
11:53 PM,-8.0,-11.9,83,30.32,10.0,Calm,Calm,-,N/A,,Unknown,0,2014-01-08 05:53:00